DHK440 EGNX-KLAX

Flight info

Callsign DHK440
Flight time N/A
Altitude 24000
Route TNT Q4 WAL/N0490F300 L10 PENIL M144 BAGSO DCT RINUS/N0485F320 DCT MALOT/M084F320 DCT 54N020W 54N030W 54N040W 53N050W DCT RIKAL/N0484F340 DCT MIILS Q907 SIKBO Q905 HOCKE Q824 FNT/N0478F360 J36 BAE J16 MCW J148 ONL J114 SNY J100 SAKES/N0483F380 DCT PROMT Q88 HAKMN ANJLL4
Aircraft B77L/H-SDE1E2E3FGHIJ2J3J4J5M1RWXY/LB1D1

Departure

Time N/A
Airport East Midlands Airport (EGNX)

Arrival

Time 2026-05-05 20:15
Airport Los Angeles International Airport (KLAX)
Time Latitude Longitude Altitude Speed Heading
2026-05-05 19:17 37.25132 -112.29775 33038 ft 469 kts 233°
2026-05-05 19:18 37.23201 -112.33060 32414 ft 465 kts 233°
2026-05-05 19:18 37.21278 -112.36328 31589 ft 465 kts 233°
2026-05-05 19:18 37.19356 -112.39590 30823 ft 466 kts 233°
2026-05-05 19:18 37.17431 -112.42856 30103 ft 465 kts 234°
2026-05-05 19:19 37.15509 -112.46113 29431 ft 463 kts 234°
2026-05-05 19:19 37.13606 -112.49335 28960 ft 455 kts 233°
2026-05-05 19:19 37.11741 -112.52491 28502 ft 447 kts 233°
2026-05-05 19:19 37.09903 -112.55599 28006 ft 441 kts 233°
2026-05-05 19:20 37.08084 -112.58673 27385 ft 438 kts 233°
2026-05-05 19:20 37.06275 -112.61724 26804 ft 435 kts 233°
2026-05-05 19:20 37.04479 -112.64748 26283 ft 431 kts 233°
2026-05-05 19:20 37.02701 -112.67737 25970 ft 425 kts 233°
2026-05-05 19:21 37.00940 -112.70695 25916 ft 424 kts 233°
2026-05-05 19:21 36.99171 -112.73662 25933 ft 427 kts 233°
2026-05-05 19:21 36.97391 -112.76647 25942 ft 429 kts 233°
2026-05-05 19:21 36.95605 -112.79639 25936 ft 431 kts 233°
2026-05-05 19:22 36.93803 -112.82656 25954 ft 434 kts 233°
2026-05-05 19:22 36.91993 -112.85686 25985 ft 437 kts 233°
2026-05-05 19:22 36.90168 -112.88736 25972 ft 439 kts 233°
2026-05-05 19:22 36.88341 -112.91787 25971 ft 439 kts 233°
2026-05-05 19:23 36.86513 -112.94837 25968 ft 438 kts 233°
2026-05-05 19:23 36.84690 -112.97879 25962 ft 437 kts 233°
2026-05-05 19:23 36.82872 -113.00907 25955 ft 435 kts 233°
2026-05-05 19:23 36.81059 -113.03925 25958 ft 433 kts 232°
2026-05-05 19:24 36.79256 -113.06921 25949 ft 430 kts 232°
2026-05-05 19:24 36.77464 -113.09899 25924 ft 427 kts 232°
2026-05-05 19:24 36.75685 -113.12853 25907 ft 426 kts 232°
2026-05-05 19:24 36.73903 -113.15808 25901 ft 426 kts 232°
2026-05-05 19:25 36.72124 -113.18757 25896 ft 426 kts 232°
2026-05-05 19:25 36.70337 -113.21714 25887 ft 428 kts 232°
2026-05-05 19:25 36.69148 -113.23682 25878 ft 429 kts 232°
2026-05-05 19:25 36.66739 -113.27665 25862 ft 432 kts 232°
2026-05-05 19:26 36.65541 -113.29645 25859 ft 433 kts 232°
2026-05-05 19:26 36.63727 -113.32639 25856 ft 434 kts 232°
2026-05-05 19:26 36.61911 -113.35649 25852 ft 435 kts 233°
2026-05-05 19:26 36.60142 -113.38701 25852 ft 435 kts 234°
2026-05-05 19:27 36.58400 -113.41779 25848 ft 435 kts 234°
2026-05-05 19:27 36.56100 -113.45869 25849 ft 436 kts 234°
2026-05-05 19:27 36.54361 -113.48954 25853 ft 436 kts 234°
2026-05-05 19:27 36.52613 -113.52041 25847 ft 437 kts 234°
2026-05-05 19:28 36.51430 -113.54125 25848 ft 437 kts 234°
2026-05-05 19:28 36.49675 -113.57208 25846 ft 437 kts 234°
2026-05-05 19:28 36.47914 -113.60293 25848 ft 438 kts 234°
2026-05-05 19:28 36.46152 -113.63375 25855 ft 437 kts 234°
2026-05-05 19:29 36.44393 -113.66449 25852 ft 436 kts 234°
2026-05-05 19:29 36.42638 -113.69513 25842 ft 434 kts 234°
2026-05-05 19:29 36.40891 -113.72560 25838 ft 432 kts 234°
2026-05-05 19:29 36.39151 -113.75593 25848 ft 431 kts 234°
2026-05-05 19:30 36.37411 -113.78623 25837 ft 431 kts 234°
2026-05-05 19:30 36.35694 -113.81612 25839 ft 431 kts 234°
2026-05-05 19:30 36.33951 -113.84643 25841 ft 432 kts 234°
2026-05-05 19:30 36.32203 -113.87679 25850 ft 433 kts 234°
2026-05-05 19:31 36.30451 -113.90720 25839 ft 434 kts 234°
2026-05-05 19:31 36.28692 -113.93770 25840 ft 435 kts 234°
2026-05-05 19:31 36.26928 -113.96825 25837 ft 436 kts 234°
2026-05-05 19:31 36.25163 -113.99882 25833 ft 436 kts 234°
2026-05-05 19:32 36.23395 -114.02940 25830 ft 437 kts 234°
2026-05-05 19:32 36.21625 -114.05997 25830 ft 437 kts 234°
2026-05-05 19:32 36.19852 -114.09059 25827 ft 438 kts 234°
2026-05-05 19:32 36.18073 -114.12128 25829 ft 440 kts 234°
2026-05-05 19:33 36.16288 -114.15204 25828 ft 440 kts 234°
2026-05-05 19:33 36.14498 -114.18289 25820 ft 442 kts 234°
2026-05-05 19:33 36.12705 -114.21374 25822 ft 442 kts 234°
2026-05-05 19:33 36.10912 -114.24456 25821 ft 442 kts 234°
2026-05-05 19:34 36.09117 -114.27536 25833 ft 439 kts 234°
2026-05-05 19:34 36.07248 -114.30492 25819 ft 434 kts 229°
2026-05-05 19:34 36.05260 -114.33278 25812 ft 432 kts 228°
2026-05-05 19:35 36.01213 -114.38790 25826 ft 434 kts 227°
2026-05-05 19:35 35.99175 -114.41569 25820 ft 437 kts 228°
2026-05-05 19:35 35.97139 -114.44362 25829 ft 439 kts 228°
2026-05-05 19:35 35.95097 -114.47174 25837 ft 440 kts 228°
2026-05-05 19:36 35.93055 -114.49993 25846 ft 441 kts 228°
2026-05-05 19:36 35.91010 -114.52817 25848 ft 441 kts 228°
2026-05-05 19:36 35.88969 -114.55636 25857 ft 440 kts 228°
2026-05-05 19:36 35.86929 -114.58451 25861 ft 440 kts 228°
2026-05-05 19:37 35.84893 -114.61257 25817 ft 439 kts 228°
2026-05-05 19:37 35.82862 -114.64052 25876 ft 438 kts 228°
2026-05-05 19:37 35.80833 -114.66845 25876 ft 437 kts 228°
2026-05-05 19:37 35.78806 -114.69630 25876 ft 437 kts 228°
2026-05-05 19:38 35.76775 -114.72419 25878 ft 437 kts 228°
2026-05-05 19:38 35.74748 -114.75200 25877 ft 437 kts 228°
2026-05-05 19:38 35.72717 -114.77986 25907 ft 437 kts 228°
2026-05-05 19:38 35.70683 -114.80774 25906 ft 438 kts 228°
2026-05-05 19:39 35.68646 -114.83563 25909 ft 438 kts 228°
2026-05-05 19:39 35.66607 -114.86351 25903 ft 439 kts 228°
2026-05-05 19:39 35.64567 -114.89144 25905 ft 439 kts 228°
2026-05-05 19:39 35.62526 -114.91943 25907 ft 439 kts 228°
2026-05-05 19:40 35.60518 -114.94698 25905 ft 439 kts 228°
2026-05-05 19:40 35.58483 -114.97488 25908 ft 438 kts 228°
2026-05-05 19:40 35.56446 -115.00279 25906 ft 439 kts 228°
2026-05-05 19:40 35.54407 -115.03069 25921 ft 439 kts 228°
2026-05-05 19:41 35.52368 -115.05856 25917 ft 439 kts 228°
2026-05-05 19:41 35.50326 -115.08640 25917 ft 439 kts 227°
2026-05-05 19:41 35.48252 -115.11394 25920 ft 439 kts 227°
2026-05-05 19:41 35.46160 -115.14120 25873 ft 437 kts 226°
2026-05-05 19:42 35.44079 -115.16814 25493 ft 433 kts 227°
2026-05-05 19:42 35.42016 -115.19485 25013 ft 429 kts 227°
2026-05-05 19:42 35.39979 -115.22127 24472 ft 426 kts 227°
2026-05-05 19:42 35.37964 -115.24745 24237 ft 418 kts 227°
2026-05-05 19:43 35.35971 -115.27337 24069 ft 420 kts 227°
2026-05-05 19:43 35.33954 -115.29960 23946 ft 428 kts 227°
2026-05-05 19:43 35.31901 -115.32628 23923 ft 431 kts 227°
2026-05-05 19:43 35.29851 -115.35290 23913 ft 431 kts 227°
2026-05-05 19:44 35.27792 -115.37962 23916 ft 430 kts 227°
2026-05-05 19:44 35.25746 -115.40615 23913 ft 429 kts 227°
2026-05-05 19:44 35.23699 -115.43266 23922 ft 427 kts 227°
2026-05-05 19:44 35.21658 -115.45909 23918 ft 429 kts 227°
2026-05-05 19:45 35.19608 -115.48560 23923 ft 429 kts 227°
2026-05-05 19:45 35.17555 -115.51215 23914 ft 430 kts 227°
2026-05-05 19:45 35.15496 -115.53875 23917 ft 431 kts 227°
2026-05-05 19:45 35.13435 -115.56535 23921 ft 431 kts 227°
2026-05-05 19:46 35.11372 -115.59192 23918 ft 429 kts 227°
2026-05-05 19:46 35.09321 -115.61820 23911 ft 426 kts 227°
2026-05-05 19:46 35.07275 -115.64433 23908 ft 425 kts 227°
2026-05-05 19:46 35.05229 -115.67045 23903 ft 428 kts 227°
2026-05-05 19:47 35.03162 -115.69683 23913 ft 431 kts 227°
2026-05-05 19:47 35.01084 -115.72334 23902 ft 433 kts 227°
2026-05-05 19:47 34.99009 -115.74980 23907 ft 431 kts 227°
2026-05-05 19:47 34.96934 -115.77624 23899 ft 430 kts 227°
2026-05-05 19:48 34.94875 -115.80248 23896 ft 428 kts 227°
2026-05-05 19:48 34.92815 -115.82869 23900 ft 428 kts 227°
2026-05-05 19:48 34.90756 -115.85486 23899 ft 429 kts 227°
2026-05-05 19:48 34.88693 -115.88109 23909 ft 429 kts 227°
2026-05-05 19:49 34.86618 -115.90744 23900 ft 431 kts 227°
2026-05-05 19:49 34.85241 -115.92490 23901 ft 431 kts 227°
2026-05-05 19:49 34.82459 -115.96020 23902 ft 432 kts 227°
2026-05-05 19:49 34.80382 -115.98652 23898 ft 431 kts 227°
2026-05-05 19:50 34.78339 -116.01237 23899 ft 428 kts 227°
2026-05-05 19:50 34.76286 -116.03835 23888 ft 424 kts 227°
2026-05-05 19:50 34.74253 -116.06421 23886 ft 422 kts 227°
2026-05-05 19:50 34.72225 -116.09006 23893 ft 422 kts 227°
2026-05-05 19:51 34.70198 -116.11592 23897 ft 423 kts 228°
2026-05-05 19:51 34.68166 -116.14179 23897 ft 424 kts 227°
2026-05-05 19:51 34.66127 -116.16774 23896 ft 425 kts 227°
2026-05-05 19:51 34.64082 -116.19373 23901 ft 426 kts 227°
2026-05-05 19:52 34.62034 -116.21973 23890 ft 426 kts 227°
2026-05-05 19:52 34.59986 -116.24571 23899 ft 426 kts 227°
2026-05-05 19:52 34.57935 -116.27171 23899 ft 427 kts 227°
2026-05-05 19:52 34.55881 -116.29774 23903 ft 427 kts 227°
2026-05-05 19:53 34.53824 -116.32377 23904 ft 427 kts 227°
2026-05-05 19:53 34.51769 -116.34974 23902 ft 427 kts 227°
2026-05-05 19:53 34.49714 -116.37572 23908 ft 427 kts 227°
2026-05-05 19:53 34.47658 -116.40172 23906 ft 427 kts 227°
2026-05-05 19:54 34.45607 -116.42760 23919 ft 424 kts 227°
2026-05-05 19:54 34.43568 -116.45330 23907 ft 422 kts 227°
2026-05-05 19:54 34.41586 -116.47938 23908 ft 419 kts 233°
2026-05-05 19:54 34.40112 -116.50946 23933 ft 414 kts 246°
2026-05-05 19:55 34.38912 -116.54114 23922 ft 413 kts 246°
2026-05-05 19:55 34.37706 -116.57261 23916 ft 413 kts 246°
2026-05-05 19:55 34.36460 -116.60396 23929 ft 413 kts 246°
2026-05-05 19:55 34.35182 -116.63517 23951 ft 414 kts 244°
2026-05-05 19:56 34.33922 -116.66561 23935 ft 406 kts 244°
2026-05-05 19:56 34.32679 -116.69578 23928 ft 398 kts 245°
2026-05-05 19:56 34.31452 -116.72619 23938 ft 395 kts 246°
2026-05-05 19:56 34.30273 -116.75560 23950 ft 393 kts 246°
2026-05-05 19:57 34.29083 -116.78531 23938 ft 392 kts 245°
2026-05-05 19:57 34.28279 -116.80534 23947 ft 391 kts 246°
2026-05-05 19:57 34.26705 -116.84450 23946 ft 390 kts 245°
2026-05-05 19:57 34.25504 -116.87430 23702 ft 389 kts 245°
2026-05-05 19:58 34.24317 -116.90369 23173 ft 388 kts 245°
2026-05-05 19:58 34.23135 -116.93298 22650 ft 387 kts 245°
2026-05-05 19:58 34.21955 -116.96213 22135 ft 385 kts 246°
2026-05-05 19:58 34.20821 -116.99089 21674 ft 382 kts 249°
2026-05-05 19:59 34.19916 -117.02131 21230 ft 378 kts 253°
2026-05-05 19:59 34.19165 -117.05160 20777 ft 374 kts 255°
2026-05-05 19:59 34.18432 -117.08121 20330 ft 372 kts 254°
2026-05-05 19:59 34.17657 -117.11085 19840 ft 366 kts 254°
2026-05-05 20:00 34.16871 -117.13999 19211 ft 364 kts 254°
2026-05-05 20:00 34.16079 -117.16899 18549 ft 363 kts 254°
2026-05-05 20:00 34.15287 -117.19778 17999 ft 359 kts 253°
2026-05-05 20:00 34.14504 -117.22613 17398 ft 353 kts 253°
2026-05-05 20:01 34.13730 -117.25420 16747 ft 350 kts 252°
2026-05-05 20:01 34.12964 -117.28198 16089 ft 348 kts 252°
2026-05-05 20:01 34.12205 -117.30954 15530 ft 343 kts 253°
2026-05-05 20:01 34.11455 -117.33671 14915 ft 341 kts 252°
2026-05-05 20:02 34.10707 -117.36377 14384 ft 337 kts 253°
2026-05-05 20:02 34.09998 -117.39052 14098 ft 333 kts 254°
2026-05-05 20:02 34.09339 -117.41714 13390 ft 331 kts 255°
2026-05-05 20:02 34.08693 -117.44337 12886 ft 321 kts 254°
2026-05-05 20:03 34.08053 -117.46907 12454 ft 321 kts 255°
2026-05-05 20:03 34.07406 -117.49486 12021 ft 319 kts 255°
2026-05-05 20:03 34.06660 -117.51960 11740 ft 312 kts 249°
2026-05-05 20:03 34.05782 -117.54356 11491 ft 314 kts 248°
2026-05-05 20:04 34.04873 -117.56769 11278 ft 316 kts 248°
2026-05-05 20:04 34.03980 -117.59176 11238 ft 316 kts 248°
2026-05-05 20:04 34.03095 -117.61602 11188 ft 314 kts 249°
2026-05-05 20:04 34.02245 -117.63944 11153 ft 297 kts 249°
2026-05-05 20:05 34.01439 -117.66171 10953 ft 284 kts 249°
2026-05-05 20:05 34.00686 -117.68337 10501 ft 276 kts 255°
2026-05-05 20:05 34.00324 -117.70588 9909 ft 273 kts 267°
2026-05-05 20:05 34.00144 -117.72851 9352 ft 270 kts 267°
2026-05-05 20:06 33.99969 -117.75074 9011 ft 264 kts 268°
2026-05-05 20:06 33.99787 -117.77263 8654 ft 262 kts 264°
2026-05-05 20:06 33.99582 -117.79440 8333 ft 262 kts 265°
2026-05-05 20:06 33.99378 -117.81630 8018 ft 264 kts 265°
2026-05-05 20:07 33.99171 -117.83828 7724 ft 263 kts 264°
2026-05-05 20:07 33.98961 -117.86008 7446 ft 261 kts 265°
2026-05-05 20:07 33.98750 -117.88170 7164 ft 259 kts 264°
2026-05-05 20:07 33.98541 -117.90312 6892 ft 256 kts 264°
2026-05-05 20:08 33.98333 -117.92427 6661 ft 253 kts 264°
2026-05-05 20:08 33.98125 -117.94533 6430 ft 255 kts 263°
2026-05-05 20:08 33.97915 -117.96664 6189 ft 257 kts 263°
2026-05-05 20:08 33.97706 -117.98776 5931 ft 257 kts 263°
2026-05-05 20:09 33.97497 -118.00893 5740 ft 257 kts 263°
2026-05-05 20:09 33.97283 -118.03055 5463 ft 259 kts 263°
2026-05-05 20:09 33.97071 -118.05192 5227 ft 254 kts 263°
2026-05-05 20:09 33.96863 -118.07278 4994 ft 248 kts 263°
2026-05-05 20:10 33.96656 -118.09355 4682 ft 254 kts 263°
2026-05-05 20:10 33.96447 -118.11462 4373 ft 252 kts 263°
2026-05-05 20:10 33.96239 -118.13540 4042 ft 247 kts 262°
2026-05-05 20:10 33.96037 -118.15572 3695 ft 242 kts 262°
2026-05-05 20:11 33.95847 -118.17529 3519 ft 228 kts 262°
2026-05-05 20:11 33.95663 -118.19363 3214 ft 211 kts 261°
2026-05-05 20:11 33.95495 -118.21027 2968 ft 189 kts 260°
2026-05-05 20:11 33.95342 -118.22523 2706 ft 171 kts 260°
2026-05-05 20:12 33.95199 -118.23911 2512 ft 167 kts 261°
2026-05-05 20:12 33.95056 -118.25312 2294 ft 170 kts 261°
2026-05-05 20:12 33.94912 -118.26732 2055 ft 169 kts 261°
2026-05-05 20:12 33.94770 -118.28127 1831 ft 166 kts 261°
2026-05-05 20:13 33.94630 -118.29496 1617 ft 162 kts 260°
2026-05-05 20:13 33.94492 -118.30850 1375 ft 157 kts 261°
2026-05-05 20:13 33.94371 -118.32058 1180 ft 135 kts 261°
2026-05-05 20:13 33.94256 -118.33176 961 ft 135 kts 261°
2026-05-05 20:14 33.94142 -118.34289 788 ft 130 kts 261°
2026-05-05 20:14 33.94071 -118.34997 670 ft 129 kts 260°
2026-05-05 20:14 33.93958 -118.36058 492 ft 130 kts 262°
2026-05-05 20:14 33.93852 -118.37159 359 ft 133 kts 263°
2026-05-05 20:15 33.93740 -118.38239 183 ft 125 kts 262°
2026-05-05 20:15 33.93640 -118.39221 128 ft 106 kts 263°
2026-05-05 20:15 33.93572 -118.39891 128 ft 57 kts 263°
2026-05-05 20:15 33.93574 -118.40181 129 ft 30 kts 280°
2026-05-05 20:16 33.93625 -118.40381 128 ft 23 kts 279°
2026-05-05 20:16 33.93614 -118.40571 127 ft 23 kts 262°
2026-05-05 20:16 33.93592 -118.40758 127 ft 23 kts 262°
2026-05-05 20:16 33.93574 -118.40947 127 ft 23 kts 263°
2026-05-05 20:17 33.93556 -118.41136 130 ft 23 kts 270°
2026-05-05 20:17 33.93535 -118.41324 125 ft 23 kts 263°
2026-05-05 20:17 33.93516 -118.41513 128 ft 23 kts 263°
2026-05-05 20:17 33.93497 -118.41702 130 ft 23 kts 263°
2026-05-05 20:18 33.93477 -118.41891 126 ft 23 kts 263°
2026-05-05 20:18 33.93459 -118.42070 127 ft 16 kts 263°
2026-05-05 20:18 33.93461 -118.42158 128 ft 0 kts 291°
2026-05-05 20:19 33.93462 -118.42159 128 ft 0 kts 290°
2026-05-05 20:19 33.93467 -118.42170 125 ft 3 kts 302°
2026-05-05 20:19 33.93480 -118.42183 128 ft 0 kts 331°
2026-05-05 20:19 33.93497 -118.42190 126 ft 4 kts 344°
2026-05-05 20:20 33.93592 -118.42201 127 ft 17 kts 353°
2026-05-05 20:20 33.93642 -118.42295 129 ft 18 kts 264°
2026-05-05 20:20 33.93621 -118.42504 126 ft 29 kts 263°
2026-05-05 20:20 33.93613 -118.42729 127 ft 27 kts 264°
2026-05-05 20:21 33.93593 -118.42947 130 ft 23 kts 274°
2026-05-05 20:21 33.93612 -118.42996 127 ft 0 kts 313°
2026-05-05 20:21 33.93618 -118.43003 127 ft 1 kts 319°
2026-05-05 20:21 33.93623 -118.43008 128 ft 0 kts 319°
2026-05-05 20:22 33.93627 -118.43011 128 ft 0 kts 320°
2026-05-05 20:22 33.93638 -118.43018 125 ft 2 kts 338°
2026-05-05 20:22 33.93680 -118.43024 128 ft 15 kts 357°
2026-05-05 20:22 33.93786 -118.43037 127 ft 18 kts 355°
2026-05-05 20:23 33.93927 -118.43041 126 ft 20 kts
2026-05-05 20:23 33.93980 -118.43046 128 ft 1 kts 353°
2026-05-05 20:23 33.93988 -118.43047 128 ft 0 kts 353°